Weather in Chongqing

China     29°31′55″N   106°30′49″E
temp.,
°C
wind,
m/s
gust,
m/s
humid.,
%
clouds,
%
prec.,
mm/h
press.,
hPa
HPBL,
m
25 january, tue
tue2523:00+10nne2387100 0.3 1018252
02:00+10ne1286100 0.7 1018203
05:00+9ene1290100 1.6 1017211
08:00+9ene1190100 2.9 1018193
11:00+9ene1186100 0.5 1020279
14:00+10ene1283100 0.7 1017383
17:00+9ene2379100 0.0 1016420
20:00+9ene2381100 0.1 1017313
26 january, wed
wed2623:00+9ne2284100 0.4 1018316
02:00+8ene1286100 1.2 1017295
05:00+8ne2287100 0.7 1017311
08:00+8ene2387100 1.4 1018324
11:00+8ne2384100 0.3 1019373
14:00+8ne2282100 0.5 1017409
17:00+8ne2381100 0.1 1017415
20:00+8ne2383100 0.4 1019343
27 january, thu
thu2723:00+8ne2387100 1.2 1020299
02:00+7ne1290100 3.6 1020263
05:00+7ne1289100 2.2 1019194
08:00+8ne1285100 3.4 1021262
11:00+8ene1284100 0.8 1023323
14:00+8ene1283100 1.1 1020400
17:00+8ne2284100 0.6 1020384
20:00+8ne2383100 0.7 1022425
28 january, fri
fri2823:00+7ne2485100 0.6 1023409
02:00+7ne2386100 2.0 1023365
05:00+7ne2384100 0.6 1022646
08:00+7ne2384100 1.4 1023615
11:00+7ne2285100 1.1 1025822
14:00+7ne1185100 1.9 1022785
17:00+7ne2284100 0.4 1022808
20:00+7ne2383100 0.7 1023652
29 january, sat
sat2923:00+7ne1279100 0.1 1024423
02:00+6ne1185100 0.7 1023664
05:00+6ese1187100 1.1 1022401
08:00+6sse1285100 2.6 1023563
11:00+7s2380100 0.2 1023588
14:00+8e226998 0.3 1020773
17:00+8ene2370100 0.1 1019665
20:00+8ne3475100 0.1 1021493